TimePDT,TemperatureF,Dew PointF,Humidity,Sea Level PressureIn,VisibilityMPH,Wind Direction,Wind SpeedMPH,Gust SpeedMPH,PrecipitationIn,Events,Conditions,WindDirDegrees,DateUTC
12:15 AM,55.4,51.8,88,29.98,10.0,Calm,Calm,-,N/A,,Clear,0,2012-09-09 07:15:00
12:35 AM,55.4,51.8,88,29.98,10.0,Calm,Calm,-,N/A,,Scattered Clouds,0,2012-09-09 07:35:00
12:55 AM,55.4,51.8,88,29.99,10.0,SE,4.6,-,N/A,,Scattered Clouds,140,2012-09-09 07:55:00
1:15 AM,55.4,51.8,88,29.98,10.0,Calm,Calm,-,N/A,,Mostly Cloudy,0,2012-09-09 08:15:00
1:35 AM,57.2,53.6,88,29.98,10.0,Calm,Calm,-,N/A,,Overcast,0,2012-09-09 08:35:00
1:55 AM,57.2,53.6,88,29.98,9.0,South,6.9,-,N/A,,Overcast,170,2012-09-09 08:55:00
2:15 AM,59.0,51.8,77,29.98,10.0,South,6.9,-,N/A,,Overcast,190,2012-09-09 09:15:00
2:35 AM,59.0,51.8,77,29.98,10.0,South,8.1,-,N/A,,Overcast,170,2012-09-09 09:35:00
2:55 AM,60.8,51.8,72,29.99,10.0,SE,4.6,-,N/A,,Overcast,130,2012-09-09 09:55:00
3:15 AM,60.8,51.8,72,29.99,10.0,SSE,4.6,-,N/A,,Overcast,160,2012-09-09 10:15:00
3:35 AM,60.8,51.8,72,29.98,10.0,SSE,4.6,-,N/A,,Overcast,150,2012-09-09 10:35:00
3:55 AM,60.8,51.8,72,29.99,10.0,SE,6.9,-,N/A,,Overcast,140,2012-09-09 10:55:00
4:15 AM,60.8,51.8,72,29.99,10.0,SE,6.9,-,N/A,,Overcast,130,2012-09-09 11:15:00
4:35 AM,59.0,51.8,77,29.99,10.0,SE,6.9,-,N/A,,Overcast,130,2012-09-09 11:35:00
4:55 AM,59.0,51.8,77,29.99,2.0,SE,8.1,-,N/A,,Overcast,130,2012-09-09 11:55:00
5:15 AM,59.0,50.0,72,29.98,10.0,SE,6.9,-,N/A,,Overcast,140,2012-09-09 12:15:00
5:35 AM,59.0,50.0,72,29.98,10.0,SSE,9.2,-,N/A,,Overcast,150,2012-09-09 12:35:00
5:55 AM,59.0,50.0,72,29.98,10.0,SE,8.1,-,N/A,,Overcast,140,2012-09-09 12:55:00
6:35 AM,59.0,51.8,77,29.98,10.0,SE,6.9,-,N/A,,Overcast,130,2012-09-09 13:35:00
6:55 AM,57.2,51.8,82,29.99,10.0,SSE,6.9,-,N/A,,Overcast,150,2012-09-09 13:55:00
7:15 AM,57.2,51.8,82,30.00,10.0,SSE,5.8,-,N/A,,Overcast,160,2012-09-09 14:15:00
7:35 AM,59.0,51.8,77,30.00,10.0,SE,8.1,-,N/A,,Overcast,140,2012-09-09 14:35:00
7:55 AM,59.0,51.8,77,30.00,10.0,SE,8.1,-,N/A,,Overcast,140,2012-09-09 14:55:00
8:15 AM,60.8,51.8,72,30.01,10.0,SSE,8.1,-,N/A,,Overcast,150,2012-09-09 15:15:00
8:35 AM,60.8,50.0,68,30.01,10.0,SSE,9.2,-,N/A,,Overcast,160,2012-09-09 15:35:00
8:55 AM,60.8,51.8,72,30.01,10.0,SSE,11.5,-,N/A,,Overcast,150,2012-09-09 15:55:00
9:15 AM,60.8,51.8,72,30.01,10.0,South,10.4,-,N/A,,Overcast,170,2012-09-09 16:15:00
9:35 AM,62.6,51.8,68,30.02,10.0,SSE,10.4,-,N/A,,Overcast,150,2012-09-09 16:35:00
9:55 AM,62.6,50.0,63,30.01,10.0,SE,11.5,-,N/A,,Overcast,140,2012-09-09 16:55:00
10:15 AM,60.8,51.8,72,30.02,10.0,SSE,11.5,17.3,N/A,,Overcast,150,2012-09-09 17:15:00
10:35 AM,59.0,53.6,82,30.02,7.0,SSW,5.8,-,N/A,,Overcast,200,2012-09-09 17:35:00
10:55 AM,59.0,53.6,82,30.02,9.0,SSE,5.8,-,N/A,,Mostly Cloudy,160,2012-09-09 17:55:00
11:15 AM,59.0,51.8,77,30.03,7.0,SSW,8.1,16.1,N/A,,Mostly Cloudy,210,2012-09-09 18:15:00
11:35 AM,57.2,53.6,88,30.03,8.0,SSW,4.6,-,N/A,,Overcast,210,2012-09-09 18:35:00
11:55 AM,59.0,53.6,82,30.03,8.0,South,6.9,-,N/A,,Overcast,180,2012-09-09 18:55:00
12:15 PM,59.0,53.6,82,30.03,10.0,Calm,Calm,-,N/A,,Overcast,0,2012-09-09 19:15:00
12:35 PM,60.8,51.8,72,30.04,10.0,Calm,Calm,-,N/A,,Overcast,0,2012-09-09 19:35:00
12:55 PM,60.8,51.8,72,30.04,9.0,South,3.5,-,N/A,,Overcast,180,2012-09-09 19:55:00
1:15 PM,59.0,53.6,82,30.03,10.0,Calm,Calm,-,N/A,,Overcast,0,2012-09-09 20:15:00
1:35 PM,62.6,53.6,72,30.03,10.0,SE,3.5,-,N/A,,Overcast,140,2012-09-09 20:35:00
1:55 PM,60.8,51.8,72,30.03,10.0,SE,11.5,-,N/A,,Overcast,140,2012-09-09 20:55:00
2:15 PM,60.8,53.6,77,30.03,10.0,SE,9.2,-,N/A,,Overcast,130,2012-09-09 21:15:00
2:35 PM,62.6,53.6,72,30.02,10.0,SE,8.1,-,N/A,,Overcast,130,2012-09-09 21:35:00
2:55 PM,64.4,53.6,68,30.02,10.0,SE,13.8,-,N/A,,Overcast,130,2012-09-09 21:55:00
3:15 PM,64.4,53.6,68,30.01,10.0,SE,12.7,-,N/A,,Scattered Clouds,130,2012-09-09 22:15:00
3:35 PM,66.2,53.6,64,30.01,10.0,SE,12.7,-,N/A,,Scattered Clouds,130,2012-09-09 22:35:00
3:55 PM,64.4,51.8,64,30.01,10.0,SE,11.5,-,N/A,,Overcast,130,2012-09-09 22:55:00
4:15 PM,64.4,51.8,64,30.00,10.0,SE,10.4,-,N/A,,Overcast,140,2012-09-09 23:15:00
4:35 PM,64.4,51.8,64,30.00,10.0,SSE,11.5,-,N/A,,Overcast,150,2012-09-09 23:35:00
4:55 PM,64.4,51.8,64,30.00,10.0,SE,11.5,-,N/A,,Overcast,140,2012-09-09 23:55:00
5:15 PM,62.6,51.8,68,30.00,10.0,SE,11.5,-,N/A,,Overcast,130,2012-09-10 00:15:00
5:35 PM,62.6,51.8,68,30.00,10.0,ESE,10.4,-,N/A,,Overcast,120,2012-09-10 00:35:00
5:55 PM,62.6,53.6,72,30.00,10.0,SE,9.2,-,N/A,,Overcast,130,2012-09-10 00:55:00
6:15 PM,60.8,53.6,77,29.99,10.0,SE,9.2,-,N/A,,Overcast,130,2012-09-10 01:15:00
6:35 PM,60.8,53.6,77,29.98,10.0,SE,10.4,-,N/A,,Overcast,130,2012-09-10 01:35:00
6:55 PM,60.8,53.6,77,29.98,10.0,SE,10.4,-,N/A,,Overcast,140,2012-09-10 01:55:00
7:15 PM,60.8,51.8,72,29.98,10.0,SSE,10.4,-,N/A,,Overcast,150,2012-09-10 02:15:00
7:35 PM,60.8,51.8,72,29.97,10.0,SSE,10.4,-,N/A,,Overcast,150,2012-09-10 02:35:00
7:55 PM,62.6,51.8,68,29.97,10.0,SSE,11.5,-,N/A,,Overcast,160,2012-09-10 02:55:00
8:15 PM,60.8,51.8,72,29.97,10.0,SSE,11.5,-,N/A,,Overcast,150,2012-09-10 03:15:00
8:35 PM,62.6,51.8,68,29.97,8.0,SSE,11.5,17.3,N/A,,Overcast,150,2012-09-10 03:35:00
8:55 PM,60.8,53.6,77,29.97,10.0,SSE,11.5,-,N/A,,Overcast,150,2012-09-10 03:55:00
9:15 PM,59.0,53.6,82,29.97,10.0,SSE,11.5,-,N/A,,Overcast,150,2012-09-10 04:15:00
9:35 PM,59.0,53.6,82,29.97,10.0,SSE,11.5,-,N/A,,Overcast,160,2012-09-10 04:35:00
9:55 PM,57.2,53.6,88,29.96,10.0,SSE,10.4,-,N/A,,Overcast,150,2012-09-10 04:55:00
10:15 PM,59.0,53.6,82,29.96,10.0,SSE,10.4,-,N/A,,Overcast,150,2012-09-10 05:15:00
10:35 PM,57.2,53.6,88,29.96,10.0,SSE,8.1,-,N/A,,Overcast,150,2012-09-10 05:35:00
10:55 PM,57.2,53.6,88,29.96,10.0,SSE,8.1,-,N/A,,Overcast,150,2012-09-10 05:55:00
11:15 PM,57.2,53.6,88,29.96,10.0,SSE,8.1,-,N/A,,Overcast,150,2012-09-10 06:15:00
11:35 PM,57.2,53.6,88,29.96,10.0,SSE,9.2,-,N/A,,Overcast,150,2012-09-10 06:35:00
11:55 PM,57.2,53.6,88,29.96,10.0,SE,5.8,-,N/A,,Overcast,140,2012-09-10 06:55:00